RH
23 22 20 19 17 16 15 14 14 15 18 23 30 41 55 66 74 80 82 78 75 80 89 96 99 100 102 102 100 102 104 100 90 78 69 65 65 70 80 90 95 95 93 91 89 86 85 84 83 82 81 79 78 76 72 69 67 63 60 56 52 48 46 46 42 42 46 47 44 42 42 42 41 39 39 40 38 36 35 36 37 34 30 25 23
29 29 28 26 25 23 21 19 18 16 14 14 14 16 20 27 36 49 62 69 69 66 69 79 88 92 96 99 101 101 102 103 103 98 89 80 72 65 60 62 70 79 87 91 94 94 92 90 88 87 87 87 85 83 81 79 76 73 69 65 60 55 50 48 43 42 46 47 50 52 50 48 49 46 42 40 38 37 36 38 41 41 37 32 28
35 34 33 32 32 31 29 27 24 22 20 18 16 15 14 13 14 18 25 33 35 33 35 49 67 80 85 88 93 97 99 101 102 102 101 97 92 86 75 63 54 53 60 69 79 87 90 92 93 93 92 93 91 89 89 88 86 83 79 76 71 65 60 56 51 47 48 50 56 62 59 55 53 52 52 51 48 45 41 40 41 42 41 38 34
39 39 39 38 37 36 34 33 30 27 26 24 22 20 18 16 15 14 13 13 14 13 13 20 35 51 63 71 78 84 89 93 95 98 100 100 99 98 95 86 72 57 48 47 52 60 68 77 86 93 96 96 94 93 94 95 94 91 87 84 81 77 73 67 60 56 54 53 56 59 57 54 53 52 55 58 58 56 53 50 47 44 43 41 38
44 44 44 42 41 40 39 37 35 32 30 29 27 25 23 21 20 18 16 14 12 12 11 11 15 21 29 37 48 58 68 75 80 84 87 90 93 95 97 96 90 78 64 52 44 40 42 49 59 72 84 93 96 95 96 99 100 100 96 90 87 84 82 78 72 67 63 60 59 60 58 57 55 53 54 58 62 65 64 62 58 54 52 50 45
50 51 51 49 47 46 44 41 38 37 36 34 32 30 27 26 25 23 21 19 15 13 12 11 10 11 13 15 20 27 37 47 57 63 67 71 76 80 84 88 89 87 79 68 56 45 37 34 36 42 53 68 83 93 97 98 100 102 103 99 94 90 88 86 82 76 72 69 68 67 66 65 63 60 59 60 64 68 70 70 68 66 65 64 60
56 57 57 56 54 52 49 45 42 40 40 39 38 36 34 31 30 28 25 22 18 15 13 13 13 12 12 12 12 14 17 21 28 35 42 48 54 59 64 70 75 78 79 74 67 58 48 38 31 30 34 41 53 69 85 96 100 101 102 103 102 99 95 92 89 85 80 77 75 74 74 74 73 70 68 67 67 69 71 72 72 70 70 72 70
62 63 64 62 60 57 54 51 47 44 43 43 43 41 39 37 36 34 29 24 20 18 18 19 21 22 20 18 17 15 14 14 14 16 19 23 27 32 37 44 51 58 64 68 68 64 58 50 38 28 27 30 35 41 53 72 89 98 101 101 102 103 102 99 97 93 88 84 82 81 80 80 80 78 77 76 74 73 72 72 74 73 72 76 77
68 68 67 65 64 62 59 55 52 49 48 47 46 44 43 42 40 37 32 25 21 21 24 28 31 32 30 27 23 20 17 15 14 13 12 12 12 13 15 19 25 32 41 49 55 58 57 55 48 37 26 24 30 33 34 41 58 76 92 100 101 102 103 103 102 100 97 92 88 86 84 82 83 84 83 81 79 80 80 80 81 80 79 82 84
70 69 68 68 67 64 62 59 57 55 53 51 50 49 48 46 43 38 31 25 24 27 31 36 37 36 33 28 25 23 21 19 17 15 14 13 11 10 10 10 10 13 19 25 33 40 44 45 45 42 32 22 23 31 34 32 35 45 61 81 95 101 102 102 102 102 102 100 95 91 87 83 83 85 86 87 87 87 87 86 86 87 87 87 88
67 67 67 67 66 64 63 62 60 59 57 55 55 54 51 48 44 37 29 25 27 33 39 41 40 36 33 30 28 26 25 24 23 21 19 17 15 13 12 11 11 10 10 12 15 19 24 28 30 32 31 24 21 28 35 35 34 33 36 48 68 86 98 102 102 101 102 103 101 98 95 90 87 86 88 91 94 93 92 92 92 93 94 94 93
61 61 62 62 63 64 64 63 62 61 59 57 57 56 55 52 45 35 28 27 32 39 44 45 42 39 35 32 30 30 31 31 31 29 26 24 21 19 16 13 13 12 11 11 11 10 11 14 16 19 21 22 24 29 35 38 37 36 33 33 39 54 73 90 99 102 101 101 102 103 101 98 94 93 92 91 94 96 97 96 96 96 97 99 99
56 56 58 60 63 66 66 64 62 60 59 58 58 58 58 52 43 32 28 32 39 46 49 47 44 41 38 35 33 34 35 37 38 36 33 31 29 25 22 18 15 15 14 13 12 12 11 11 11 13 16 20 26 33 39 41 41 40 38 36 33 34 42 57 75 91 100 103 103 102 101 101 100 99 98 95 95 97 99 100 100 99 100 101 102
56 58 61 65 68 68 67 65 63 61 60 59 59 61 58 49 38 31 33 42 50 54 53 51 47 44 41 39 37 37 39 41 42 42 40 38 36 33 29 24 20 17 16 16 15 14 14 13 12 12 15 19 26 35 43 47 47 45 43 40 38 34 32 34 42 58 78 94 103 102 99 101 102 101 101 100 99 99 100 101 101 100 101 101 102
54 58 64 69 72 70 69 68 66 64 63 64 66 64 56 44 34 32 40 52 58 58 56 52 49 47 45 44 42 40 41 43 45 46 45 44 43 42 38 32 27 22 18 17 17 16 16 16 15 14 15 19 26 34 43 51 54 52 48 46 43 40 36 32 30 33 43 62 84 99 102 101 100 100 102 102 100 100 102 102 102 102 103 103 103
51 56 61 66 69 71 71 70 68 67 67 71 72 65 52 40 33 36 48 59 62 59 56 52 50 49 49 49 47 45 45 47 47 47 48 49 49 48 45 40 35 30 24 20 18 17 17 17 17 17 16 19 26 34 42 50 57 58 55 51 49 46 41 37 33 30 29 33 49 74 94 101 102 100 99 101 100 100 102 103 102 102 102 102 101
50 54 59 64 70 75 76 74 72 74 76 77 76 67 52 39 37 46 58 65 65 61 57 54 53 53 52 52 51 49 48 51 52 51 51 53 55 54 51 48 43 37 32 28 23 19 17 16 17 19 20 20 24 35 45 51 56 62 62 57 54 51 47 43 38 34 31 28 29 40 62 84 97 102 100 100 101 100 100 101 101 100 101 101 101
52 55 59 66 74 79 80 79 79 81 82 83 81 73 58 43 43 56 68 70 69 65 61 59 58 57 55 54 54 52 52 54 57 57 55 56 56 55 54 53 50 46 41 37 31 24 19 17 17 20 24 23 23 33 49 58 60 62 66 64 60 57 53 49 44 39 36 34 31 30 37 53 75 93 101 100 100 100 100 100 100 99 100 101 102
55 57 60 67 76 82 83 83 83 82 80 79 78 74 66 52 47 59 72 74 71 67 64 62 62 61 59 57 56 55 54 57 60 58 53 52 52 52 52 54 54 53 51 46 40 32 24 20 19 19 24 29 26 27 44 65 72 70 70 71 66 62 59 55 50 46 42 41 41 40 39 42 55 76 94 100 100 100 100 100 100 100 100 101 101
59 60 63 69 76 82 85 84 82 79 74 71 68 68 67 60 52 58 72 77 73 68 66 64 64 64 63 61 60 58 57 59 61 57 51 48 50 50 49 50 54 58 59 54 49 42 34 28 25 21 22 29 31 27 34 60 84 88 84 80 74 68 65 63 56 51 50 53 56 59 61 63 65 76 92 100 100 100 100 100 100 100 100 100 100
62 64 67 71 77 84 88 87 84 80 73 68 64 64 65 63 56 58 71 79 77 72 70 67 65 65 65 64 62 62 63 63 65 63 57 52 53 53 51 51 54 58 60 58 55 50 44 38 33 26 22 27 34 33 31 49 82 101 99 93 87 78 72 69 64 57 55 61 71 79 84 88 88 89 96 100 101 100 100 100 100 100 100 100 100
63 65 67 71 76 83 90 93 93 89 81 73 70 69 69 65 59 59 70 81 81 76 74 72 68 67 68 66 65 66 67 69 72 71 66 58 55 54 52 53 54 55 56 57 56 54 51 46 41 33 25 25 34 38 35 41 70 98 106 103 99 93 85 77 70 63 60 63 76 89 97 100 99 99 100 101 100 100 100 100 100 100 100 100 100
63 64 64 67 71 76 84 93 97 97 91 84 80 78 75 70 63 61 71 84 86 82 79 76 73 72 71 69 68 68 69 73 77 77 71 64 59 57 55 55 55 54 53 54 55 55 53 50 46 40 31 26 33 41 39 38 58 89 106 106 104 103 97 88 78 72 70 69 75 89 99 101 101 100 100 100 100 100 100 100 100 100 100 100 100
66 65 64 64 67 70 76 83 88 90 90 86 84 82 79 76 69 63 71 87 92 87 83 81 78 79 77 73 73 73 72 75 80 81 78 74 72 69 64 59 57 55 53 53 54 54 53 51 49 44 35 28 32 40 41 38 51 80 102 105 104 105 104 96 88 85 85 84 84 89 96 100 101 100 100 100 100 100 100 100 100 100 100 100 100
71 70 67 65 66 68 73 79 82 83 83 81 79 77 77 79 76 67 72 90 98 92 87 86 84 86 84 80 80 81 79 78 81 82 82 82 84 84 77 72 70 65 59 56 54 52 52 52 49 44 38 33 33 39 41 40 49 73 96 104 104 105 105 100 96 96 97 97 95 95 96 99 102 101 100 100 100 100 100 100 100 100 100 100 100
74 73 70 68 67 69 73 80 85 86 86 81 75 73 76 80 79 70 72 90 101 97 92 90 89 93 93 87 86 88 86 83 83 83 82 84 88 91 92 94 93 85 74 69 65 62 59 55 49 45 41 37 36 38 40 41 46 67 91 104 104 104 104 102 101 102 103 101 100 100 100 101 102 101 100 100 100 100 100 100 100 100 100 100 100
73 73 72 69 69 70 73 80 86 90 91 85 77 76 80 83 79 70 70 86 98 98 95 93 92 98 100 94 90 92 90 87 86 86 86 89 93 95 98 102 102 97 92 90 91 91 85 73 61 52 44 39 38 40 41 40 46 66 92 105 105 104 103 102 101 102 103 101 101 101 101 101 101 100 100 100 100 100 100 100 100 100 100 100 100
69 70 70 68 68 69 72 78 85 91 95 92 85 84 89 89 82 72 69 82 96 97 95 95 96 100 104 98 92 93 93 91 91 92 92 96 99 98 99 101 100 100 101 100 101 104 102 91 81 70 58 49 46 45 44 41 48 71 96 105 103 101 101 101 102 102 102 101 101 101 101 100 100 100 100 100 100 100 100 100 99 99 100 100 100
67 67 68 66 66 66 68 74 82 89 95 97 96 97 96 91 82 73 69 80 95 96 93 97 100 102 104 100 95 96 98 94 92 95 98 99 100 100 99 100 99 99 101 100 100 102 102 99 96 89 76 66 62 59 55 49 55 78 99 103 100 100 101 101 103 103 103 103 102 101 101 100 100 100 100 100 100 100 100 100 100 100 100 100 100
67 69 69 68 67 65 65 71 78 84 91 96 100 106 107 95 80 70 67 77 95 100 95 96 102 104 104 103 99 98 99 95 91 93 97 99 101 100 99 100 100 99 100 100 99 100 100 100 101 99 92 86 83 80 73 66 71 89 102 101 100 101 101 101 103 104 104 104 103 102 101 100 100 100 100 99 100 99 99 99 99 99 100 99 100
70 72 73 72 71 70 69 72 76 80 85 89 93 101 108 100 83 69 61 66 87 104 102 98 102 105 103 101 100 99 98 94 92 94 98 100 101 99 97 98 100 99 100 100 100 100 100 99 100 101 100 97 95 94 90 86 89 98 102 100 100 101 100 100 101 102 103 105 104 103 102 101 101 101 101 101 101 101 101 102 102 101 101 101 100
72 75 77 78 78 78 76 76 77 79 82 84 85 88 95 95 84 72 63 59 71 95 107 104 102 103 101 99 100 101 99 96 95 97 99 100 100 99 98 99 100 100 100 100 100 100 100 100 99 100 100 100 99 99 99 98 99 101 102 100 100 100 100 100 100 100 101 103 104 104 102 101 101 101 99 98 97 96 95 93 90 87 84 82 79
63 65 69 73 78 82 84 82 82 82 83 85 84 82 85 89 82 71 65 60 62 80 102 108 103 100 100 99 100 100 99 98 98 99 100 100 99 100 101 100 100 100 100 100 100 100 99 100 100 99 99 100 100 101 101 102 102 101 101 100 100 100 100 100 100 100 101 102 104 106 104 99 96 94 90 86 82 80 78 76 73 72 71 71 72
45 45 46 50 57 70 83 89 90 90 89 89 89 85 84 88 84 71 62 62 62 69 88 105 108 102 98 99 100 101 100 98 98 99 100 100 100 100 100 100 100 100 100 100 100 100 100 99 100 100 99 99 100 100 101 101 100 100 100 100 100 100 100 100 100 100 100 101 103 105 104 101 99 96 94 91 88 86 86 85 86 87 89 90 91
45 39 33 30 31 39 56 75 88 95 94 92 92 91 87 88 87 75 60 58 65 69 77 95 107 105 100 98 99 100 100 99 99 99 100 100 100 100 99 100 100 100 100 100 99 99 100 100 99 99 100 100 100 100 100 100 100 100 100 100 100 100 100 100 100 100 100 100 101 103 103 103 103 102 101 101 101 100 100 99 99 99 100 99 97
62 44 27 22 21 21 27 43 65 85 96 97 95 95 91 88 90 83 63 53 61 71 77 89 102 105 102 100 99 100 100 99 99 100 100 99 100 100 100 100 100 99 99 100 100 100 99 100 100 100 100 100 100 100 100 100 100 100 100 100 100 100 100 100 100 100 100 100 100 101 101 101 102 101 101 102 102 102 102 101 99 99 98 96 94
79 57 32 19 20 21 18 22 37 62 87 100 100 98 93 87 88 88 72 54 54 65 75 86 99 104 104 102 100 99 100 100 99 100 100 100 99 100 100 100 100 100 100 99 100 100 100 99 100 100 100 100 100 100 100 100 100 100 100 100 100 100 100 100 100 100 100 100 100 100 100 100 100 100 100 101 100 100 100 100 100 100 100 97 95
92 78 50 25 19 21 20 17 21 38 66 90 98 97 95 89 86 88 80 60 51 59 70 80 93 102 104 104 102 99 99 100 100 100 100 100 100 100 100 100 99 100 100 100 100 100 100 100 100 100 100 100 100 100 100 100 100 100 100 100 100 100 100 100 100 100 100 100 100 100 100 100 100 100 100 100 100 100 101 101 102 103 102 100 99
98 93 75 46 25 19 20 19 17 23 45 74 90 93 92 87 83 86 85 69 53 53 63 73 86 98 102 103 103 102 99 99 100 100 100 100 100 99 100 100 100 99 100 100 100 100 100 100 100 100 100 100 100 100 100 100 100 100 100 100 100 100 100 100 100 100 100 100 100 100 100 100 100 101 101 101 101 101 101 101 101 101 101 100 99
97 99 97 78 50 30 21 20 20 23 35 58 78 86 88 86 80 81 84 76 59 52 57 66 77 91 101 104 104 102 101 99 100 100 99 99 100 100 99 99 100 100 100 100 100 100 100 100 100 100 100 100 100 100 100 100 100 100 100 100 100 100 100 100 100 100 100 101 101 101 101 101 101 102 102 102 101 101 101 101 101 100 99 98 95
98 98 102 99 84 61 39 25 23 28 37 52 67 75 80 83 81 79 82 80 66 53 53 61 70 81 95 103 103 102 102 100 99 100 101 100 99 100 100 99 100 100 100 100 100 100 100 100 100 100 100 100 100 100 100 100 100 100 100 100 100 100 100 100 100 101 101 101 101 101 101 101 101 101 100 100 100 100 100 99 97 94 91 87 83
100 98 98 99 98 91 76 56 40 33 34 43 56 66 73 78 80 77 77 80 74 59 50 54 63 73 88 100 102 102 103 103 100 99 100 100 100 100 100 100 100 99 99 100 100 100 100 100 100 100 100 100 100 100 100 100 100 100 100 100 100 100 101 100 100 100 101 101 101 101 100 100 100 100 100 99 97 95 91 87 83 79 76 71 67
100 97 95 94 95 97 97 91 78 64 51 42 41 46 54 65 74 77 75 76 75 66 54 50 55 64 78 93 101 102 102 103 102 100 99 100 100 100 100 99 100 100 100 100 100 100 100 100 100 100 100 100 100 100 100 100 100 100 100 100 100 100 100 100 100 100 100 100 100 100 100 101 100 99 97 93 88 83 79 75 72 68 64 60 56
101 98 96 95 95 94 95 97 97 93 87 76 63 52 44 42 49 60 68 72 75 71 60 50 50 57 67 82 95 102 103 102 101 101 101 100 99 100 100 100 100 100 100 100 100 100 100 100 100 100 100 100 100 100 100 100 100 100 100 100 100 100 100 100 100 100 100 100 101 102 101 100 98 95 90 86 82 79 76 72 67 63 59 57 55
103 101 99 99 99 97 96 95 94 93 93 93 90 84 74 60 48 42 45 52 63 71 68 56 47 48 57 71 85 96 101 102 101 101 101 101 100 99 100 100 100 100 100 100 100 100 100 100 100 100 100 100 100 100 100 100 100 100 100 99 100 100 100 100 101 102 103 103 103 101 99 98 96 93 90 86 82 79 75 71 68 65 63 61 59
102 103 104 104 103 102 99 97 96 94 92 91 90 89 90 88 80 67 53 43 41 49 61 63 55 46 46 57 72 86 95 100 101 101 101 101 100 100 100 100 100 100 100 100 100 100 100 100 99 100 100 100 99 100 100 100 100 99 100 100 100 100 100 102 103 104 104 102 100 100 100 99 96 91 85 81 77 74 72 70 68 66 64 62 61
103 106 108 108 108 107 105 100 97 96 95 94 93 90 87 86 88 89 85 73 55 42 40 48 54 52 46 45 56 72 86 95 99 101 102 101 100 100 100 100 100 99 99 100 100 100 99 100 100 100 99 100 100 100 100 100 100 100 100 100 100 101 103 105 104 103 101 101 102 101 99 94 88 83 78 75 73 71 70 68 66 65 64 64 62
106 108 107 107 106 108 108 104 100 96 93 92 92 93 91 88 86 85 88 91 88 74 54 41 39 44 45 43 45 55 71 85 94 99 101 101 101 101 100 100 100 100 101 100 100 100 100 100 100 100 100 100 100 100 100 100 100 100 99 99 101 103 105 105 104 102 101 100 97 93 88 84 80 77 75 74 74 73 71 70 68 67 64 60 57
106 105 103 103 105 108 109 106 102 97 94 90 87 86 87 88 88 87 85 85 89 93 88 72 52 39 35 37 39 45 55 69 82 93 99 101 101 103 103 101 99 100 101 101 100 100 101 100 99 100 100 99 99 100 100 100 100 101 102 103 104 105 104 103 100 96 93 89 86 83 81 80 79 79 79 79 76 72 67 62 57 51 46 43 41
105 107 105 105 107 110 111 108 103 98 94 90 86 84 82 82 82 84 86 85 84 87 93 95 86 66 46 33 29 34 44 55 67 80 92 99 101 101 102 102 101 100 100 100 100 99 99 100 102 103 103 102 102 102 103 103 104 105 104 103 101 99 96 93 89 87 86 86 84 84 84 85 85 83 79 71 62 55 49 45 41 38 38 37 35
102 108 110 109 109 108 106 103 100 96 92 88 85 82 81 80 79 78 80 83 85 85 86 91 97 96 82 59 37 26 30 42 55 66 77 90 99 101 100 100 101 101 100 101 103 103 102 103 106 108 108 108 108 107 107 107 105 102 99 97 95 92 90 89 89 89 89 88 88 89 88 84 76 67 59 53 51 51 49 46 43 42 39 36 36
Wind_Speed
61 62 62 62 63 65 67 70 75 80 85 90 95 99 102 104 106 108 108 109 109 108 107 106 106 105 104 103 103 102 102 102 101 100 99 98 98 97 97 97 96 95 94 92 91 91 91 90 90 90 90 91 90 90 89 88 87 87 87 87 86 85 85 86 84 80 79 79 77 76 75 74 72 71 69 69 69 68 68 68 68 68 68 68 68
60 61 60 60 61 61 62 64 66 68 71 75 79 84 88 93 98 103 106 109 111 112 112 112 110 109 108 107 106 104 104 104 104 104 104 102 101 100 99 98 98 98 97 96 94 93 93 92 91 91 91 91 91 91 90 90 90 89 88 88 88 87 86 87 87 84 82 81 80 80 80 78 76 74 72 72 71 71 70 69 69 70 70 70 70
61 61 61 60 60 60 60 61 62 64 65 67 69 71 75 79 83 89 95 100 104 108 112 113 113 113 112 111 110 108 107 106 105 106 106 107 106 104 103 101 99 98 98 98 98 96 95 94 93 93 93 93 92 91 91 91 91 91 90 89 89 88 87 88 89 87 84 84 84 83 82 81 79 78 76 74 74 75 73 72 71 71 72 73 72
62 62 62 61 60 59 58 59 60 61 62 63 64 66 68 70 73 76 79 83 88 94 99 105 109 111 112 113 113 113 111 110 109 108 107 108 108 108 107 106 104 102 100 99 99 98 98 97 96 95 95 95 94 93 92 92 92 92 92 91 90 89 88 90 91 88 86 87 87 86 84 83 82 81 79 77 77 77 76 76 75 73 73 74 74
62 62 62 61 59 59 58 58 58 58 59 60 62 63 64 65 67 68 70 72 75 79 84 90 96 101 105 108 111 113 114 114 113 113 112 111 111 110 110 109 108 107 105 103 101 100 99 98 98 97 97 97 97 96 95 94 93 92 92 92 92 90 89 90 91 90 89 88 88 87 86 85 84 82 80 79 80 79 79 78 78 76 75 75 75
63 62 62 61 59 59 58 58 57 57 57 58 59 61 62 63 64 64 65 67 68 71 74 78 83 88 92 97 101 106 109 112 114 115 115 115 115 115 114 113 112 111 109 108 106 104 102 100 98 98 99 99 99 98 97 96 96 94 93 93 93 92 91 90 90 91 90 89 89 88 87 86 85 83 82 82 83 83 81 79 79 78 75 75 76
62 62 62 60 59 58 58 58 57 55 55 56 57 59 60 61 62 62 63 64 64 66 68 70 73 76 80 84 88 93 97 102 107 111 114 116 118 119 118 118 117 116 114 113 111 110 108 105 102 100 100 100 100 100 99 99 98 98 96 95 94 93 93 91 91 91 91 91 90 89 88 86 86 85 84 85 85 85 84 82 81 80 77 75 76
62 61 60 59 58 58 58 57 55 54 54 55 56 57 58 59 60 61 62 63 63 63 63 64 66 68 71 74 77 81 85 89 94 99 105 110 114 117 120 121 121 121 120 118 117 115 113 111 108 104 102 102 102 101 101 100 101 101 100 98 96 95 94 93 92 92 92 92 91 91 89 88 88 88 87 88 87 86 85 83 82 83 81 76 74
61 60 59 59 58 57 57 55 54 53 53 54 55 56 56 58 59 60 61 61 61 61 61 61 62 64 66 69 72 75 78 81 85 89 93 97 102 107 111 115 118 121 122 122 121 120 118 116 113 110 107 105 104 103 102 101 101 102 102 101 99 98 96 95 94 93 93 93 92 92 92 90 89 89 89 89 88 86 86 85 83 83 82 78 75
58 58 58 58 58 57 55 54 53 52 53 54 55 55 56 57 57 58 59 59 59 59 59 60 61 63 64 66 69 71 74 77 79 83 86 89 92 95 99 103 107 112 116 119 120 121 120 119 117 115 111 108 107 106 104 102 101 101 101 102 102 101 100 98 97 95 94 93 93 93 93 92 90 89 88 87 87 87 87 87 85 84 83 81 79
57 56 56 57 56 56 54 53 52 52 52 53 54 54 55 56 56 57 57 57 57 57 58 59 60 62 63 65 66 68 70 72 75 78 81 85 87 90 92 95 98 101 106 110 113 115 117 118 117 116 114 111 108 107 106 104 102 101 101 101 102 103 102 101 99 97 96 94 93 93 93 93 91 89 88 87 87 88 88 87 87 86 84 83 82
56 55 55 55 54 54 54 53 52 52 52 52 53 53 53 54 55 55 55 55 55 55 56 57 59 61 63 64 65 65 66 68 71 74 77 80 83 85 88 90 93 95 98 101 105 108 110 111 112 113 113 111 109 107 106 105 103 102 101 100 100 101 102 103 102 100 98 96 94 94 93 92 90 90 89 88 87 87 87 88 88 87 86 84 83
54 54 54 53 53 53 53 52 52 52 52 52 52 51 52 52 53 53 53 52 52 53 54 56 58 60 62 64 64 64 64 65 68 71 73 75 78 81 84 86 89 91 93 96 99 102 104 105 106 107 108 109 108 106 105 104 103 102 101 100 99 99 100 101 102 101 100 98 96 95 94 92 90 90 89 88 87 86 87 88 88 87 87 86 84
53 53 53 52 52 52 52 51 51 51 51 51 51 51 51 51 51 51 50 50 50 51 53 55 57 59 61 63 63 63 63 64 66 68 70 71 73 77 80 82 84 86 88 91 94 97 100 101 102 102 104 105 106 105 104 103 102 102 101 100 99 98 98 99 100 100 100 100 98 97 95 93 92 91 90 90 89 87 87 87 87 87 86 86 84
52 52 51 51 51 51 51 50 50 50 49 50 49 49 50 50 50 49 48 48 49 50 51 53 55 57 59 61 62 62 62 63 65 66 67 68 70 73 76 78 80 81 83 86 89 92 95 98 99 100 101 102 103 103 103 102 101 100 100 99 98 98 97 97 97 98 98 99 98 97 96 94 94 92 91 91 91 89 89 88 88 88 87 87 86
50 50 50 50 50 50 49 49 48 48 47 47 48 48 48 49 48 47 46 46 47 49 50 52 53 55 57 59 60 60 60 61 63 64 64 66 68 71 73 75 76 77 78 80 83 87 90 93 96 97 98 100 100 101 102 101 100 100 99 98 97 96 96 95 95 95 96 96 96 96 96 95 94 93 92 92 92 91 90 91 91 90 90 89 88
50 49 49 49 49 48 48 47 47 46 45 45 46 46 47 47 47 46 46 46 47 48 49 51 52 54 55 56 57 57 57 58 60 61 62 64 66 68 70 71 72 74 74 76 78 81 85 88 92 95 97 98 99 99 100 100 100 99 98 97 96 95 94 93 93 93 93 93 93 93 94 94 93 92 92 91 91 91 91 91 91 91 90 90 89
49 48 48 47 47 47 46 46 45 44 43 44 44 44 45 45 45 45 45 45 46 47 48 49 51 52 52 53 54 54 53 54 57 58 58 61 64 66 67 68 69 70 71 72 74 77 79 82 86 91 95 97 98 99 99 99 99 98 97 96 95 93 92 91 91 91 91 91 91 90 90 91 90 90 90 89 89 89 90 90 90 90 89 88 88
48 48 47 46 46 45 44 44 43 43 42 42 43 43 43 44 44 44 44 45 45 46 47 48 49 50 50 50 50 51 50 50 52 54 54 56 60 62 64 65 65 65 67 68 70 72 74 75 79 85 91 95 97 98 98 98 98 97 96 95 94 92 90 89 89 89 89 88 88 87 87 87 87 87 87 87 86 86 86 87 88 88 87 86 86
48 47 46 46 45 44 44 43 43 43 43 43 43 43 43 43 43 43 43 44 44 45 46 47 47 47 48 47 47 47 47 47 47 48 49 51 53 56 58 60 60 60 62 64 66 67 68 69 72 78 86 91 94 96 97 97 96 95 95 94 92 91 89 88 87 87 86 85 84 84 84 84 84 84 84 84 84 84 84 84 85 86 86 86 86
48 47 46 45 45 44 44 44 43 44 44 43 43 43 44 44 43 43 42 42 43 43 44 45 45 45 45 45 44 44 44 43 43 43 44 45 47 49 52 53 54 55 57 58 60 61 62 63 66 71 79 86 91 93 95 96 96 94 93 92 91 90 89 88 86 85 85 84 83 82 82 82 81 81 81 81 82 82 83 83 84 84 85 85 85
48 47 47 46 45 45 45 44 44 44 44 44 43 43 44 43 43 42 42 41 41 42 42 43 43 43 42 42 41 41 40 40 39 39 39 40 41 43 45 46 48 50 51 53 54 56 56 57 60 65 73 81 86 90 93 95 95 93 91 90 90 89 88 87 86 85 85 84 83 82 82 81 81 81 80 80 81 81 82 83 83 84 84 85 85
48 48 47 46 46 46 46 46 46 46 45 45 44 43 43 43 42 42 41 40 40 40 40 41 41 40 40 40 39 38 37 36 35 35 36 36 36 38 39 40 42 44 46 47 48 50 52 53 56 61 68 75 81 86 90 92 93 92 90 88 87 87 86 86 85 84 84 83 83 83 83 82 82 82 81 81 81 82 82 83 83 84 84 85 85
48 47 47 47 46 46 46 46 47 47 47 46 45 44 43 42 41 41 40 39 39 39 39 39 39 38 38 38 38 37 36 34 33 32 32 32 32 34 35 35 36 38 39 40 42 44 47 49 53 58 64 70 76 82 85 88 89 90 89 87 85 85 85 84 83 83 82 82 82 83 83 83 83 83 82 82 82 82 83 83 83 84 84 84 85
47 47 47 46 45 45 45 45 46 47 47 46 45 43 42 40 40 40 39 38 38 37 37 37 37 36 36 36 36 36 35 33 32 30 29 28 29 29 30 30 30 31 31 33 35 38 41 45 49 54 59 64 70 76 80 83 85 87 87 86 83 83 83 83 82 81 80 80 80 80 81 83 83 83 83 83 82 83 83 83 83 84 84 84 84
47 47 46 45 44 44 43 43 44 45 45 45 43 42 40 39 38 38 37 36 36 36 36 36 35 34 34 34 34 34 34 32 31 29 28 26 26 25 25 25 25 25 25 26 28 31 34 39 43 47 52 57 63 69 74 78 81 83 84 84 82 81 81 81 81 80 79 78 78 78 79 80 81 82 82 82 82 82 82 82 82 83 83 83 83
46 45 45 44 43 43 42 42 42 42 43 43 42 41 40 38 37 36 36 35 35 34 34 34 34 32 32 32 32 32 32 31 29 28 26 25 24 23 22 22 22 21 21 21 23 26 30 33 36 41 46 51 56 63 69 73 77 79 81 82 81 79 79 80 81 80 80 78 77 77 77 77 78 79 80 80 81 81 81 82 82 82 82 83 83
44 44 44 43 42 42 41 41 40 40 41 41 40 39 39 38 36 36 35 34 33 33 33 33 32 31 30 30 30 30 30 29 28 26 25 24 23 21 20 20 20 19 18 19 21 24 27 30 32 36 40 45 50 56 63 68 73 76 77 78 78 77 76 77 78 79 79 79 77 76 76 76 76 76 77 78 79 79 80 80 81 81 81 82 82
44 43 43 42 42 42 41 40 40 40 39 39 39 39 38 37 35 35 34 33 32 32 31 31 31 30 28 28 28 28 28 28 26 25 23 22 21 20 19 18 18 18 17 18 20 23 25 27 30 32 35 39 43 49 55 62 67 71 72 73 74 74 73 73 74 75 77 77 77 77 76 75 75 76 76 77 77 78 78 78 78 79 79 79 80
43 43 43 42 42 42 41 39 39 39 39 38 37 37 38 37 35 34 33 31 31 31 30 29 29 28 27 26 26 26 26 26 25 23 22 20 19 19 18 17 17 17 17 17 19 22 24 26 28 30 31 34 37 42 48 55 61 65 66 67 68 70 69 69 70 71 72 73 74 75 75 76 76 76 76 76 77 77 77 77 77 77 77 78 78
44 43 44 43 43 42 41 39 39 38 38 38 36 35 36 36 36 34 32 30 28 29 29 28 28 27 26 25 24 24 25 25 24 22 20 19 18 18 17 17 16 16 16 17 19 21 22 25 27 28 29 30 33 37 42 48 54 59 62 62 63 65 65 65 65 66 66 67 68 70 71 72 73 74 75 75 76 76 76 77 77 77 77 77 77
45 45 45 44 44 43 42 40 39 38 37 37 36 34 33 34 35 35 34 31 28 27 28 28 27 26 25 24 22 22 23 23 22 20 19 18 18 17 16 16 15 15 16 17 19 20 21 23 26 27 28 30 32 34 38 43 48 53 56 57 58 59 60 61 61 61 62 62 63 64 65 66 67 68 69 70 71 71 72 72 72 72 72 72 72
48 48 47 47 46 44 43 41 40 38 37 37 36 35 33 33 33 34 34 32 29 26 25 26 26 25 24 22 21 21 21 21 20 19 18 18 17 16 15 15 14 15 15 17 18 19 20 22 25 27 29 30 31 33 36 39 43 47 50 52 53 54 55 56 57 57 58 58 58 58 59 59 60 61 61 62 62 63 64 64 64 64 65 65 65
48 48 48 48 47 46 44 42 40 39 37 36 36 35 33 32 32 32 32 32 31 27 24 24 25 25 23 21 20 19 19 20 19 17 17 17 16 15 15 14 14 14 15 15 16 17 19 21 23 26 28 30 32 33 35 37 40 42 45 47 48 49 50 51 52 53 53 53 54 54 54 55 55 56 56 57 57 58 59 59 60 61 61 62 62
45 46 47 47 47 46 45 43 41 39 37 36 35 34 33 32 31 31 30 30 30 29 26 23 23 24 23 21 19 18 18 19 18 17 16 16 15 15 15 14 14 14 14 15 15 17 18 20 22 25 27 30 32 33 34 36 38 40 42 44 45 46 47 48 49 50 50 50 51 51 51 52 52 53 54 54 55 56 57 58 58 59 60 61 61
43 44 45 45 44 43 43 42 41 39 37 35 34 34 33 32 30 30 30 29 28 29 27 24 22 22 23 21 19 18 18 18 17 17 16 16 15 14 14 14 14 14 15 15 16 17 18 20 21 24 26 29 31 32 34 35 37 39 41 42 43 44 45 46 47 47 48 49 49 49 50 50 51 52 52 53 54 55 55 56 57 58 59 59 60
42 44 44 43 41 40 39 39 38 38 36 35 33 33 33 32 30 29 29 29 28 27 27 25 23 22 22 21 20 19 18 17 17 16 16 16 15 14 14 14 14 15 16 16 16 17 18 20 21 23 25 27 29 31 33 35 36 38 40 41 43 43 44 45 45 46 47 47 48 49 49 49 50 51 51 52 52 53 53 54 55 55 56 56 57
41 42 42 41 39 37 36 35 34 34 34 33 32 32 32 31 30 29 28 28 28 27 26 25 23 22 21 21 20 19 18 17 17 16 16 16 15 14 14 15 15 16 16 17 17 18 19 20 21 23 24 26 27 29 31 33 35 37 38 40 42 43 43 44 44 45 45 46 47 47 48 48 49 49 50 50 50 51 51 52 52 52 53 53 53
39 39 40 40 38 35 33 31 30 30 30 31 31 31 31 31 30 29 28 27 27 27 26 25 24 22 21 21 21 20 19 18 17 17 16 16 15 15 15 15 15 16 17 17 18 18 19 20 22 23 24 25 27 28 29 31 32 34 35 37 39 40 41 41 42 43 43 44 45 45 45 46 46 46 47 47 48 48 48 49 49 49 50 50 50
36 37 37 37 36 34 31 28 26 25 26 27 28 29 29 30 29 29 28 27 27 26 26 25 25 23 22 22 22 21 19 19 18 18 17 16 16 16 16 16 16 17 18 18 19 19 20 21 22 23 24 25 26 27 29 30 31 32 33 34 36 37 38 39 39 40 41 41 42 42 42 43 43 43 44 44 45 45 45 45 46 46 46 47 47
35 34 34 34 33 32 30 27 25 23 23 25 26 27 28 28 29 29 28 27 27 26 26 26 25 24 23 22 23 22 21 20 20 19 18 17 17 17 17 17 17 18 19 19 20 20 21 21 22 23 24 25 26 27 28 29 30 31 32 33 34 35 36 36 37 38 38 39 39 40 40 40 40 41 41 41 41 41 41 42 42 43 44 44 45
34 34 33 32 31 30 29 27 25 24 23 24 25 26 26 27 28 28 28 27 27 26 26 26 25 25 24 23 24 24 23 21 20 20 19 19 18 18 18 18 18 19 19 20 21 21 22 22 23 24 25 26 27 27 28 29 30 31 31 32 33 33 34 35 35 36 36 36 37 37 37 37 37 37 38 38 38 39 39 40 41 42 43 43 44
34 33 33 32 31 29 28 27 25 24 23 23 24 25 26 26 27 28 28 27 27 26 26 26 25 25 25 25 25 25 24 23 22 21 20 20 20 19 19 19 19 20 20 21 21 22 23 23 24 24 25 26 27 28 29 29 30 30 30 31 31 32 32 32 33 33 33 33 34 34 34 35 35 36 36 37 37 38 39 40 41 42 43 43 44
34 33 33 32 31 30 28 27 26 25 24 23 23 23 24 25 26 27 28 27 27 27 26 26 26 26 26 26 26 27 26 25 24 23 22 21 21 21 21 21 21 21 21 21 22 22 23 23 24 24 25 26 26 27 28 28 28 29 29 29 30 30 30 30 31 31 31 32 32 33 33 34 35 35 36 37 38 39 40 41 42 43 43 44 44
35 34 33 32 32 31 30 29 28 27 25 24 23 23 22 22 23 25 27 28 28 27 27 27 26 26 26 27 28 28 28 27 26 25 24 23 23 23 22 22 22 22 22 23 23 23 23 24 24 24 25 25 26 26 27 27 27 28 28 28 29 29 29 30 31 31 32 32 33 33 34 35 36 36 37 39 39 40 41 42 43 44 44 44 45
36 35 35 34 33 33 32 31 30 29 28 27 26 25 24 23 22 22 23 25 27 28 28 28 27 27 27 28 28 29 30 30 29 28 27 26 25 24 24 24 24 24 24 24 24 25 25 25 25 25 25 26 26 26 27 27 27 28 28 28 28 29 30 31 31 32 33 33 34 35 36 37 38 39 40 41 42 42 43 44 44 45 45 45 45
36 37 36 36 35 35 34 33 32 32 31 30 29 29 27 26 25 24 23 23 24 26 28 29 29 29 28 28 29 30 31 32 31 31 30 30 28 27 27 27 26 26 26 26 26 26 26 25 25 26 26 26 26 26 27 27 27 27 28 28 29 30 31 32 33 33 34 35 36 37 38 39 40 41 42 42 43 44 44 44 45 45 45 46 46
37 37 38 38 37 37 36 36 35 35 34 33 33 32 31 30 29 28 26 25 24 24 25 27 29 30 30 30 30 31 32 33 33 33 33 32 31 31 30 29 29 28 28 27 27 27 27 27 27 27 27 27 27 27 27 27 27 27 28 29 30 30 31 32 33 34 35 36 37 38 40 40 41 42 42 43 43 44 44 45 45 46 46 46 46
39 39 39 39 39 39 38 38 38 37 37 37 36 35 35 34 32 31 30 29 27 26 25 25 26 29 31 32 32 32 33 34 35 35 35 35 34 34 33 32 31 31 30 30 29 29 29 29 28 28 28 28 28 28 28 28 28 28 29 29 30 31 32 33 34 35 36 37 38 39 40 40 41 41 42 43 43 44 44 44 44 44 44 43 43
41 40 40 40 40 40 40 40 40 40 40 40 39 39 38 37 36 35 34 32 31 30 29 27 26 26 28 31 33 34 34 35 36 37 37 37 37 36 36 35 34 34 33 32 32 31 31 31 30 30 30 30 30 30 29 29 29 30 30 31 31 32 33 33 34 35 36 37 38 39 39 40 40 41 41 41 41 41 41 40 40 39 39 38 38
41 41 42 42 42 42 43 43 44 44 44 44 43 42 42 41 40 39 38 36 35 33 32 31 30 28 27 28 31 34 36 36 36 37 38 39 39 39 38 38 37 36 35 35 34 33 33 32 32 32 31 31 31 31 30 30 30 31 31 31 32 32 33 33 34 35 36 36 37 38 38 39 39 39 38 37 37 37 37 37 37 36 35 35 34
Wind_Direction
285 284 282 280 278 276 274 271 269 266 264 263 262 261 260 260 259 258 258 257 256 255 254 253 253 253 252 252 252 252 251 250 249 248 247 247 247 247 246 246 246 245 245 245 245 245 245 246 246 246 246 247 246 246 246 246 245 244 244 244 243 243 243 244 245 244 245 247 248 249 248 247 246 244 244 246 247 247 248 248 249 249 249 250 250
288 287 286 285 283 282 280 278 276 273 270 268 266 264 262 261 260 259 259 258 258 257 256 255 254 253 253 252 252 252 252 251 251 250 249 248 247 247 246 246 246 245 245 244 244 244 245 245 245 245 245 246 246 246 246 246 246 245 244 244 244 244 243 244 245 244 244 245 247 247 248 248 247 246 245 246 247 247 247 246 247 249 249 249 249
288 288 287 286 286 285 283 282 280 278 276 273 271 269 267 264 262 261 259 259 259 259 258 257 256 255 254 253 253 252 252 252 252 252 251 251 250 249 248 247 246 245 245 245 244 244 244 244 244 244 245 245 245 245 246 246 246 246 245 244 244 244 244 244 244 244 244 244 245 245 246 248 249 249 248 247 248 249 248 246 246 247 248 248 248
288 288 288 288 287 286 285 284 282 280 278 276 274 272 270 268 267 265 263 261 260 259 258 258 257 257 256 255 254 253 253 253 252 252 252 252 252 251 250 249 247 246 245 245 244 245 245 245 244 244 244 244 244 244 244 245 246 247 246 245 244 244 244 244 245 245 244 244 245 246 246 248 249 250 250 250 250 250 249 248 247 246 247 248 249
289 289 290 289 288 288 287 285 283 281 280 278 277 275 273 271 270 269 267 265 263 261 260 259 258 258 257 257 256 255 254 254 253 253 253 253 253 252 252 251 250 249 247 246 245 245 245 245 245 244 244 244 244 244 243 243 244 245 246 246 246 244 243 243 245 245 245 244 245 246 247 247 248 249 250 251 252 251 250 249 249 248 247 248 249
290 291 291 291 290 289 288 286 285 283 281 280 278 277 276 274 273 272 271 269 267 265 263 261 259 258 258 258 258 257 256 255 254 254 253 253 253 253 252 252 252 251 250 249 247 246 245 245 245 245 245 244 243 243 243 243 243 243 244 245 246 246 245 243 244 244 245 244 244 245 246 246 248 248 249 250 251 251 251 251 251 250 249 249 250
291 292 292 292 291 290 288 287 286 284 282 281 279 278 277 277 276 275 274 273 270 268 265 263 262 261 260 259 259 259 258 257 256 255 254 254 254 253 253 253 252 252 252 251 250 249 247 246 245 245 245 245 244 243 242 242 242 242 242 243 244 245 245 245 244 244 244 244 244 244 245 245 246 247 248 248 249 250 251 252 252 252 251 251 251
292 293 292 292 291 290 289 288 286 285 284 282 281 279 278 277 277 277 277 276 273 270 267 264 263 263 262 262 262 261 260 260 259 257 256 255 254 253 253 253 253 253 252 252 252 251 250 248 247 246 246 245 244 243 242 242 242 242 242 242 242 242 244 244 244 244 244 244 244 244 244 244 245 246 247 248 249 250 251 252 252 253 253 252 251
292 293 292 291 291 290 289 288 287 286 285 284 282 281 279 278 277 277 278 277 275 271 268 265 264 264 264 264 264 264 264 263 262 260 259 257 255 253 252 252 252 252 252 252 252 252 251 250 249 248 248 246 245 243 242 242 241 241 242 241 241 241 242 243 243 244 244 244 244 245 244 244 244 245 246 248 250 251 251 251 251 252 253 252 251
292 292 292 291 291 290 289 289 288 287 286 285 284 282 280 279 278 279 279 277 274 271 268 266 265 265 266 267 267 267 267 266 264 263 261 260 257 255 253 251 250 250 250 250 250 250 250 250 250 249 249 247 245 243 242 241 241 241 241 241 241 241 241 241 242 243 243 243 244 244 245 245 245 245 246 248 249 249 250 250 251 251 251 252 251
292 291 291 291 291 290 290 290 289 288 286 285 284 282 281 280 281 281 280 278 274 271 269 268 268 269 269 270 270 269 269 268 266 265 263 261 260 257 255 252 250 249 248 248 248 248 248 248 248 248 248 247 244 242 242 241 240 240 240 240 240 241 241 241 241 242 242 243 243 243 244 245 245 246 246 246 247 248 249 250 251 251 251 251 252
292 292 291 291 291 291 291 290 289 288 287 285 284 283 282 283 283 283 281 277 273 271 271 271 271 272 273 273 272 271 270 268 267 265 263 262 261 259 257 254 251 249 248 246 245 245 245 245 245 245 245 245 243 241 240 240 240 239 239 239 239 240 240 240 240 241 241 242 242 243 243 244 245 245 246 246 246 247 248 248 249 250 250 251 252
293 293 293 293 292 292 291 290 289 288 288 287 286 285 284 284 284 283 281 277 274 273 273 274 275 276 276 276 275 274 272 270 268 266 264 262 261 260 258 255 253 250 248 246 245 243 242 242 242 241 241 241 240 239 238 238 238 238 238 238 238 238 239 239 239 239 240 241 242 242 243 244 244 244 245 246 246 245 246 246 247 248 249 250 251
294 294 294 294 293 292 291 290 290 289 289 288 288 287 287 286 285 283 280 277 275 275 275 277 278 278 279 278 277 276 274 272 269 267 265 263 262 261 259 257 254 252 249 247 245 243 241 240 239 239 238 238 238 237 236 236 236 237 237 237 237 238 238 238 239 239 239 239 240 241 242 243 244 244 245 245 245 245 245 246 246 247 247 248 248
296 296 295 295 293 292 292 292 291 290 290 289 289 289 289 288 287 284 280 277 277 277 278 279 280 280 280 280 279 278 276 273 271 268 267 265 263 261 260 258 256 253 250 248 245 243 241 239 238 237 236 236 235 235 234 234 234 235 235 236 236 237 237 238 238 239 239 238 239 240 241 242 243 243 244 244 245 244 244 245 245 245 245 246 246
298 297 296 295 294 293 293 293 292 291 291 290 291 291 291 291 289 285 282 280 280 280 281 281 282 282 282 282 280 279 277 275 272 270 268 266 264 261 260 258 257 255 252 249 246 244 241 239 237 235 235 234 233 233 232 232 232 233 233 234 235 236 236 237 237 238 238 238 238 238 239 240 241 242 243 243 244 244 244 244 244 245 245 246 246
299 297 296 295 295 295 294 294 293 293 292 292 292 293 294 293 291 287 284 283 283 284 285 286 286 286 285 283 282 280 278 276 274 272 269 267 264 262 260 259 257 256 253 251 248 245 242 239 236 234 233 233 232 231 231 230 231 231 232 233 233 234 235 235 236 237 237 238 238 238 238 238 239 241 242 242 243 243 243 244 244 245 246 246 247
299 298 297 296 295 295 294 294 294 294 293 293 293 295 296 295 292 288 286 286 286 287 288 289 289 289 287 285 284 282 280 278 276 274 271 268 265 263 261 259 257 256 254 252 249 246 242 239 236 233 231 231 230 229 229 229 229 229 230 231 232 232 233 234 235 236 237 237 238 238 238 238 238 239 240 241 242 243 243 244 244 245 245 246 247
299 298 298 297 296 294 294 294 294 294 294 294 295 296 297 297 294 289 287 288 288 290 291 291 292 291 290 288 287 286 284 281 279 276 273 270 267 264 262 259 257 256 254 253 251 248 244 240 237 233 230 229 229 229 228 228 228 228 228 229 230 231 232 233 234 235 236 237 237 238 238 238 238 238 238 239 241 242 243 243 244 245 245 245 246
300 299 298 296 295 294 293 292 293 293 294 295 296 297 298 298 296 292 289 289 291 292 293 294 294 294 292 292 291 290 288 286 283 280 277 272 268 265 262 260 257 255 254 252 251 249 245 241 238 234 230 228 227 227 227 226 226 226 227 227 228 229 230 231 232 234 235 235 236 237 238 238 239 238 238 238 239 240 241 242 243 244 244 245 245
301 299 298 296 295 294 292 292 292 293 295 296 297 298 298 298 298 295 291 291 293 294 295 296 296 296 295 296 296 294 292 290 287 284 280 275 271 267 264 261 259 256 253 251 249 248 245 242 238 235 231 227 226 226 226 225 225 225 225 226 226 227 228 229 230 231 232 233 234 235 236 237 238 238 238 238 238 239 239 240 241 242 243 244 245
301 300 299 297 296 294 293 292 292 293 294 296 297 298 298 298 298 297 294 292 294 295 296 297 298 298 298 299 299 298 296 294 291 288 283 279 274 270 266 263 260 256 253 250 248 246 244 241 238 235 230 227 224 224 224 224 223 223 224 225 225 225 226 227 229 230 230 231 231 232 233 234 235 236 237 237 238 238 238 239 240 241 242 243 244
302 301 300 298 297 295 294 293 293 293 294 295 296 298 298 297 298 297 295 294 295 296 297 298 298 299 300 301 301 301 300 298 295 291 287 283 278 273 269 265 261 257 253 250 247 245 242 239 236 233 230 226 223 222 222 222 222 222 223 224 224 224 225 226 227 229 229 230 230 230 231 232 233 234 235 236 236 237 238 239 240 241 242 243 244
302 301 300 299 298 297 296 295 294 294 294 295 295 296 297 297 297 297 296 295 295 296 297 298 299 300 301 302 302 302 302 302 299 295 291 286 282 277 273 268 264 260 255 250 247 243 241 238 234 231 228 224 222 220 220 220 221 221 221 222 223 223 224 224 225 227 228 229 229 229 230 230 231 232 233 234 235 236 237 238 239 240 241 242 243
302 301 300 299 298 298 298 297 297 296 295 295 295 295 296 296 296 296 296 295 295 296 297 298 299 300 302 302 302 302 303 303 302 299 295 290 285 281 277 273 269 263 257 251 246 242 239 236 233 230 227 224 221 219 218 218 218 219 220 221 221 222 223 223 223 225 226 228 228 229 229 230 231 231 232 233 234 234 236 237 238 239 240 241 243
302 301 300 299 299 299 299 299 298 298 297 297 296 295 296 296 295 295 296 295 295 296 297 298 298 300 301 301 301 301 301 302 302 301 298 295 290 284 280 276 270 264 257 249 243 238 235 234 231 229 226 224 221 219 217 216 216 218 219 220 220 221 221 222 222 223 224 225 227 228 228 229 230 231 232 233 233 234 235 236 238 239 240 241 242
302 301 300 300 300 300 301 300 300 299 298 297 297 296 296 296 295 295 295 295 295 296 297 297 297 298 299 299 300 300 299 301 301 300 299 297 294 289 283 278 272 265 257 247 238 232 230 228 227 226 225 223 221 219 216 215 215 216 218 219 219 220 221 221 221 222 223 224 225 227 228 229 230 230 231 232 233 234 235 236 238 239 240 241 242
303 302 301 301 301 301 301 301 300 299 298 297 297 297 297 297 295 295 295 295 295 295 297 297 297 297 297 298 299 299 298 299 300 299 299 297 295 291 285 280 274 267 258 247 236 230 227 224 223 224 223 222 220 219 216 215 214 215 217 218 219 220 221 221 221 222 223 224 225 226 227 228 229 230 231 232 233 234 235 236 238 239 241 242 243
303 303 302 301 301 301 302 302 301 299 297 297 297 297 297 296 295 295 295 295 294 294 296 296 296 297 297 298 299 298 298 298 298 298 297 295 293 289 284 279 274 267 258 247 237 230 227 223 221 222 222 220 220 219 217 215 214 214 216 218 219 220 221 221 222 222 223 224 225 226 227 228 229 230 231 232 234 235 236 237 238 240 241 242 244
304 303 302 301 301 300 301 301 300 298 297 296 296 297 297 297 295 293 294 294 294 294 295 296 296 296 296 297 298 297 296 296 296 295 294 293 289 285 280 276 272 266 258 247 238 232 228 223 220 219 218 217 217 218 217 216 214 214 215 218 219 220 221 222 222 223 224 225 226 227 229 230 231 232 233 234 235 236 237 238 239 240 242 243 245
304 302 301 300 299 299 300 299 298 297 296 295 295 295 295 296 296 294 292 292 292 292 293 295 295 295 295 295 296 296 295 295 295 294 293 290 285 281 278 274 268 263 256 248 240 234 229 224 219 216 215 214 214 216 216 216 214 214 215 217 219 221 222 223 223 224 225 226 227 228 230 231 233 234 235 236 237 238 239 240 241 243 244 245 247
303 301 300 298 298 297 297 296 296 295 294 294 294 294 294 294 295 294 293 291 290 289 291 293 294 293 293 292 293 294 294 294 294 293 291 286 281 278 276 271 265 260 253 246 240 234 228 222 218 214 211 210 211 212 214 215 214 214 215 217 219 220 222 223 225 225 226 227 228 229 231 233 234 236 237 238 239 240 241 242 243 244 245 246 247
302 300 297 296 295 294 293 293 293 292 291 291 292 293 293 292 293 293 292 291 289 288 287 289 292 292 291 290 290 291 291 291 291 290 285 281 278 274 271 267 260 254 248 243 238 232 226 221 217 213 209 207 207 209 211 212 213 214 215 217 218 220 222 224 225 227 228 229 230 231 232 234 235 237 238 239 240 241 242 243 244 245 246 247 248
303 301 298 295 293 291 289 289 289 289 288 288 288 289 290 290 290 290 290 289 289 287 284 285 288 290 289 287 287 287 287 287 287 284 280 277 274 270 265 261 254 248 245 241 235 229 224 220 216 213 209 206 205 206 208 210 211 213 214 216 218 220 221 223 225 227 229 230 231 232 233 234 236 237 238 239 241 242 243 244 245 246 248 249 250
308 306 303 299 295 291 287 285 284 284 285 285 286 286 287 287 287 288 287 286 286 286 284 282 283 285 286 285 282 281 282 282 282 279 275 272 269 265 260 256 250 243 240 235 229 224 221 218 216 213 210 207 205 205 205 207 209 212 214 216 217 219 221 223 224 226 228 230 231 233 234 235 237 238 239 241 242 243 244 246 247 248 249 250 251
316 314 311 307 301 295 289 284 280 279 280 282 283 283 283 284 284 285 286 284 282 282 282 280 280 280 282 282 279 276 275 276 276 275 270 267 265 261 257 253 246 238 233 230 225 220 217 216 214 212 211 208 206 205 205 206 208 210 213 215 217 219 221 223 224 226 228 229 231 233 234 236 238 239 241 242 244 245 246 247 248 249 250 251 252
321 321 319 316 310 303 295 287 281 277 276 279 281 281 281 281 281 282 283 283 280 278 278 277 276 276 277 278 275 271 269 270 270 269 266 262 260 256 250 245 240 233 229 226 221 216 213 211 211 211 210 209 208 207 206 207 208 209 211 214 216 218 220 222 223 225 227 229 231 232 234 236 238 239 241 242 244 245 247 248 249 250 251 252 252
322 325 325 323 318 312 303 294 284 277 274 275 277 279 279 279 279 279 280 281 279 277 275 274 272 271 272 272 271 268 265 263 263 263 261 258 254 249 243 239 234 230 226 223 220 215 211 209 208 208 208 208 208 208 208 208 209 210 211 213 215 217 219 221 223 225 227 228 230 232 234 235 237 239 240 242 243 245 246 247 248 249 250 250 251
322 326 328 329 326 321 313 303 292 282 275 274 276 277 277 277 277 277 277 278 277 275 273 271 269 267 266 266 266 264 261 258 256 255 255 253 249 244 239 234 229 226 224 221 218 215 211 208 207 206 206 206 206 206 207 208 209 211 212 214 215 217 219 221 223 225 226 228 230 232 233 235 236 238 239 240 242 243 244 245 246 247 248 249 250
320 324 328 331 331 329 323 315 303 291 281 276 276 277 277 277 277 276 275 275 275 273 271 269 266 263 261 260 261 260 257 253 251 249 247 246 244 240 236 230 225 223 221 219 217 215 212 210 207 206 206 206 205 205 206 207 209 210 212 213 215 217 218 220 222 224 226 228 229 231 232 234 235 237 238 239 240 242 243 244 245 246 248 249 250
318 321 324 328 332 332 330 323 314 302 291 284 281 279 278 277 277 276 274 273 272 271 269 266 264 260 257 255 255 256 254 250 247 245 243 240 238 236 233 228 223 220 219 217 216 215 213 211 209 208 208 207 207 207 208 208 209 211 212 214 215 217 219 220 222 224 225 227 229 230 232 233 235 236 237 238 239 241 242 244 245 247 248 250 251
315 317 319 322 327 330 331 329 322 312 301 293 287 284 281 279 277 276 274 271 270 269 267 265 262 259 255 251 251 251 250 248 244 242 240 237 233 231 229 226 222 219 217 216 215 214 213 212 211 210 209 209 209 209 210 211 211 212 214 215 216 218 219 221 222 224 225 226 227 229 230 231 233 234 236 237 239 241 243 245 247 249 251 252 254
312 314 315 317 319 323 326 327 326 321 314 305 296 289 284 280 278 276 274 272 269 267 266 264 261 258 254 250 248 247 247 245 242 239 236 234 231 228 225 223 220 217 215 214 214 213 213 212 211 211 210 210 210 211 211 212 213 214 215 216 217 219 220 221 222 223 224 225 226 227 229 230 232 234 237 239 242 244 247 249 251 253 255 256 257
310 311 312 313 314 315 316 318 319 320 319 315 309 301 293 286 280 276 274 272 269 267 265 262 260 257 253 249 246 244 243 242 240 237 233 231 229 227 224 222 219 216 213 212 212 212 212 212 212 211 211 211 212 212 213 213 214 214 215 216 217 219 220 221 222 223 224 225 226 228 231 233 236 239 242 245 247 250 252 254 256 257 258 259 260
307 309 310 311 311 311 311 310 310 311 311 312 312 310 305 299 290 282 276 272 269 266 264 262 259 256 253 249 245 242 240 239 237 235 233 230 227 225 224 223 221 217 214 212 211 211 211 211 211 211 212 212 213 213 214 214 215 216 216 217 218 220 221 222 223 224 225 227 229 232 235 238 242 245 248 251 253 255 257 258 259 260 261 262 262
305 306 307 308 308 308 307 306 306 305 304 304 304 304 304 303 301 295 286 278 271 266 263 261 259 256 253 249 245 242 240 237 235 233 232 230 227 225 224 223 222 220 217 214 213 212 211 212 212 212 213 213 214 215 216 217 217 218 219 220 221 222 224 225 226 228 230 232 235 238 242 245 249 252 254 256 258 259 260 261 262 263 263 263 263
303 304 304 304 304 304 304 304 303 302 301 300 299 298 298 297 297 296 294 288 281 272 265 260 257 255 252 249 246 243 240 237 234 232 231 229 227 225 225 225 223 222 220 218 217 216 215 215 215 215 216 217 218 218 219 220 221 222 223 224 225 227 228 229 231 233 236 239 242 246 249 252 255 257 258 259 260 261 262 263 264 264 264 264 264
303 302 302 301 301 301 301 301 300 300 299 298 296 294 293 292 291 290 289 288 286 281 274 265 258 254 251 249 246 243 240 238 235 232 230 229 227 225 225 225 225 223 222 221 220 219 218 218 218 219 220 221 222 223 224 225 226 227 228 229 231 232 234 236 238 241 244 247 250 253 255 257 259 260 261 262 263 264 265 265 266 266 265 265 264
302 301 300 300 299 299 298 298 298 297 297 296 294 292 290 288 286 285 283 282 281 280 277 273 265 257 251 248 245 243 240 238 236 233 231 229 228 226 225 224 224 224 223 223 222 222 221 221 221 221 222 223 224 226 227 228 230 231 233 235 237 239 241 244 246 248 251 253 255 257 259 260 262 263 265 266 266 267 267 267 266 265 265 264 263
302 301 300 299 299 298 297 297 296 295 295 293 292 290 288 286 284 281 279 277 275 274 273 272 269 263 256 249 245 242 240 238 236 234 231 230 229 228 226 225 225 224 224 223 223 223 223 223 223 223 224 225 226 227 229 231 233 235 237 239 242 244 246 248 251 253 255 257 258 260 262 263 264 266 267 267 267 266 265 264 263 263 262 261 260
303 301 301 300 299 298 298 297 296 295 293 292 290 288 286 283 281 279 276 274 271 269 267 266 265 264 260 254 247 242 239 237 236 234 232 230 229 229 228 227 226 226 226 225 225 225 225 225 225 225 226 227 228 229 231 233 235 238 240 243 245 247 249 251 254 255 257 259 261 262 264 266 266 266 266 265 264 263 263 262 261 260 259 258 256